Weather History for KSMF - April, 2013

Change the Weather History Date:

Thursday, April 18, 2013

  Actual Average (KSAC) Record (KSAC)
Temperature  
Mean Temperature 60 °F -  
Max Temperature 78 °F 72 °F 89 °F (1954)
Min Temperature 44 °F 46 °F 36 °F (2007)
Degree Days  
Heating Degree Days 4    
Cooling Degree Days 0    
Growing Degree Days 10 (Base 50)    
Moisture  
Dew Point 34 °F    
Average Humidity 41    
Maximum Humidity 65    
Minimum Humidity 16    
Precipitation  
Precipitation 0.00 in 0.03 in 0.44 in (1983)
Month to date precipitation 0.77  
Year to date precipitation 10.63  
Since 1 July precipitation 17.25  
Sea Level Pressure  
Sea Level Pressure 30.21 in    
Wind  
Wind Speed 6 mph (North)    
Max Wind Speed 13 mph    
Max Gust Speed 17 mph    
Visibility 10 miles    
Events      
T = Trace of Precipitation, MM = Missing Value Source: NWS Daily Summary

Daily Weather History Graph

Daily Weather History Graph

Search for Another Location

Airport or City:

Trip Planner

Search our weather history database for the weather conditions in past years. The results will help you decide how hot, cold, wet, or windy it might be!

Date:

Astronomy

Apr. 18, 2013 Rise Set
Actual Time 6:25 AM PDT 7:46 PM PDT
Civil Twilight 5:57 AM PDT 8:14 PM PDT
Nautical Twilight 5:24 AM PDT 8:47 PM PDT
Astronomical Twilight 4:49 AM PDT 9:22 PM PDT
Moon 12:43 PM PDT (4/18) 2:03 AM PDT (4/18)
Length of Visible Light 14h 16m
Length of Day
13h 21m
First Quarter, 53% of the Moon is Illuminated
Apr 18
First Quarter
Apr 25
Full
May 2
Last Quarter
May 9
New
May 17
First Quarter

Hourly Weather History & Observations

Time (PDT) Temp. Windchill Dew Point Humidity Pressure Visibility Wind Dir Wind Speed Gust Speed Precip Events Conditions
12:53 AM 46.0 °F 41.4 °F 32.0 °F 58% 30.21 in 10.0 mi NW 9.2 mph - N/A   Clear
1:53 AM 46.0 °F 41.9 °F 32.0 °F 58% 30.21 in 10.0 mi NW 8.1 mph - N/A   Clear
2:53 AM 44.1 °F 40.1 °F 33.1 °F 65% 30.20 in 10.0 mi NW 6.9 mph - N/A   Clear
3:53 AM 46.0 °F - 30.9 °F 56% 30.21 in 10.0 mi Calm Calm - N/A   Clear
4:53 AM 45.0 °F - 32.0 °F 60% 30.22 in 10.0 mi Calm Calm - N/A   Clear
5:53 AM 45.0 °F 43.5 °F 32.0 °F 60% 30.22 in 10.0 mi NNW 3.5 mph - N/A   Clear
6:53 AM 46.0 °F 41.0 °F 34.0 °F 63% 30.23 in 10.0 mi NNW 10.4 mph - N/A   Clear
7:53 AM 48.9 °F - 33.1 °F 54% 30.26 in 10.0 mi East 4.6 mph - N/A   Clear
8:53 AM 53.1 °F - 34.0 °F 48% 30.27 in 10.0 mi Calm Calm - N/A   Clear
9:53 AM 59.0 °F - 34.0 °F 39% 30.27 in 10.0 mi Calm Calm - N/A   Clear
10:53 AM 64.9 °F - 36.0 °F 34% 30.27 in 10.0 mi NNW 9.2 mph - N/A   Clear
11:53 AM 69.1 °F - 35.1 °F 29% 30.26 in 10.0 mi North 8.1 mph - N/A   Clear
12:53 PM 72.0 °F - 34.0 °F 25% 30.25 in 9.0 mi North 12.7 mph 17.3 mph N/A   Clear
1:53 PM 73.9 °F - 32.0 °F 21% 30.23 in 10.0 mi NNW 9.2 mph - N/A   Clear
2:53 PM 75.9 °F - 30.9 °F 19% 30.21 in 10.0 mi North 11.5 mph - N/A   Clear
3:53 PM 77.0 °F - 27.0 °F 16% 30.19 in 10.0 mi Variable 5.8 mph - N/A   Clear
4:53 PM 77.0 °F - 30.9 °F 19% 30.17 in 10.0 mi North 4.6 mph - N/A   Clear
5:53 PM 75.9 °F - 32.0 °F 20% 30.17 in 10.0 mi East 8.1 mph - N/A   Clear
6:53 PM 73.0 °F - 33.1 °F 23% 30.16 in 10.0 mi East 5.8 mph - N/A   Clear
7:53 PM 66.9 °F - 36.0 °F 32% 30.17 in 10.0 mi SE 6.9 mph - N/A   Clear
8:53 PM 66.0 °F - 33.1 °F 29% 30.18 in 10.0 mi SSE 5.8 mph - N/A   Clear
9:53 PM 59.0 °F - 37.0 °F 44% 30.20 in 10.0 mi SSW 6.9 mph - N/A   Clear
10:53 PM 59.0 °F - 41.0 °F 51% 30.19 in 10.0 mi South 5.8 mph - N/A   Clear
11:53 PM 55.0 °F - 42.1 °F 62% 30.19 in 10.0 mi SSW 4.6 mph - N/A   Clear